This demonstration page uses our WeatherBlox Daily Observations layout. Learn more.

Left ArrowRight Arrow

41.55636, -103.73856

Hourly Observations for September 20, 2021

Temp ( °F °C ) Dew Point ( °F °C ) Humidity (%) Winds ( mph kmh ) Pressure ( in mb ) Visibility ( mi km ) Precip ( " mm )
12:58 am 00:58 Mostly Cloudy with Light Showers 53 11.7 48 8.8 83 83 NNW 14 22 29.81 1010 10 16 0.01 0.25
1:58 am 01:58 Mostly Cloudy with Showers 51 10.6 49 9.2 91 91 NW 14 22 29.86 1011 8 13 0.04 1.02
2:58 am 02:58 Mostly Cloudy with Showers 50 9.8 48 8.9 94 94 NW 8 13 29.85 1011 9 14 0.14 3.56
3:58 am 03:58 Mostly Cloudy 51 10.4 49 9.4 94 94 NW 9 15 29.83 1010 10 16 0.02 0.51
4:58 am 04:58 Mostly Cloudy 51 10.4 48 8.8 90 90 WNW 10 17 29.87 1012 10 16 N/A
5:58 am 05:58 Partly Cloudy 49 9.6 45 7.3 86 86 NW 15 24 29.91 1013 10 16 N/A
6:58 am 06:58 Sunny 47 8.6 45 7 90 90 W 10 17 29.96 1015 10 16 N/A
7:58 am 07:58 Mostly Cloudy 48 8.7 44 6.5 86 86 NW 17 28 30.02 1017 10 16 N/A
8:58 am 08:58 Mostly Cloudy 48 8.9 43 6.1 83 83 NW 20 31 30.04 1017 10 16 N/A
9:58 am 09:58 Mostly Sunny 52 11.3 43 6 70 70 NW 23 37 30.08 1019 10 16 N/A
10:58 am 10:58 Mostly Sunny 55 12.7 41 5.1 60 60 NW 20 31 30.09 1019 10 16 N/A
11:58 am 11:58 Partly Cloudy 57 14 40 4.4 53 53 NW 24 39 30.09 1019 10 16 N/A
12:58 pm 12:58 Mostly Cloudy with Light Showers 51 10.3 40 4.2 66 66 N 14 22 30.14 1021 10 16 0.01 0.25
1:59 pm 13:59 Partly Cloudy 56 13.3 40 4.6 56 56 WNW 18 30 30.14 1021 10 16 N/A
2:58 pm 14:58 Mostly Sunny 58 14.7 33 0.8 39 39 NNW 25 41 30.14 1021 10 16 N/A
3:58 pm 15:58 Partly Cloudy 58 14.6 38 3.2 47 47 N 21 33 30.14 1021 10 16 N/A
4:58 pm 16:58 Sunny 57 14.1 35 1.5 43 43 NNW 14 22 30.16 1021 10 16 N/A
5:58 pm 17:58 Mostly Cloudy 55 12.7 37 2.7 51 51 NW 15 24 30.21 1023 10 16 N/A
6:58 pm 18:58 Mostly Cloudy 51 10.4 39 3.9 64 64 N 14 22 30.26 1025 10 16 N/A
7:58 pm 19:58 Mostly Cloudy 47 8.4 39 4.1 75 75 N 5 7 30.29 1026 10 16 N/A
8:58 pm 20:58 Mostly Cloudy 46 7.5 40 4.6 82 82 NW 10 17 30.33 1027 10 16 N/A
9:58 pm 21:58 Mostly Cloudy 47 8.4 38 3.5 72 72 WNW 13 20 30.32 1027 10 16 N/A
11:58 pm 23:58 Mostly Cloudy 44 6.5 38 3.1 79 79 WNW 9 15 30.35 1028 10 16 N/A

Powered by AerisWeather